User: anonymous   Login
Location: Hartman Creek State Park
(44.3257°N, 89.2134°W)
Time: 19:13:01
(UTC-05:00)
Language:

BREEZE-M DEB (TANK) - Orbit

View from above orbital plane
View from above orbital plane
View from above satellite
View from above satellite

Ground track
Ground track

The orbit data is extracted from the following two-line orbital elements,

1 29649U 06056B   17287.92218052 +.00001501 +00000-0 +29829-3 0  9991
2 29649 049.4909 146.2696 5379890 236.1934 060.7795 04.99813724193778
Epoch (UTC): 14 October 2017 22:07:56
Eccentricity: 0.5379890
inclination: 49.4909°
perigee height: 298 km
apogee height: 15845 km
right ascension of ascending node: 146.2696°
argument of perigee: 236.1934°
revolutions per day: 4.99813724
mean anomaly at epoch: 60.7795°
orbit number at epoch: 19377

The dashed part of the orbit path shows where the satellite is in the earth's shadow,  

DLR